Belmar-Farmingdale, NJ

10:52 AM EST on November 21, 2019 (GMT -0500)
Allaire

Weather History for KBLM - September, 2019

Change the Weather History Date:

Friday, September 6, 2019

  Actual Average Record
Temperature  
Mean Temperature 64 °F -  
Max Temperature 68 °F 75 °F 93 °F (2018)
Min Temperature 60 °F 60 °F 51 °F (2010)
Degree Days  
Heating Degree Days 1    
Growing Degree Days 14 (Base 50)    
Moisture  
Dew Point 59 °F    
Average Humidity 86    
Maximum Humidity 97    
Minimum Humidity 73    
Precipitation  
Precipitation 0.16 in - - ()
Sea Level Pressure  
Sea Level Pressure 29.87 in    
Wind  
Wind Speed 11 mph ()    
Max Wind Speed 18 mph    
Max Gust Speed 29 mph    
Visibility 7.2 miles    
Events Rain    
Averages and records for this station are not official NWS values.
T = Trace of Precipitation, MM = Missing Value Source: Averaged Metar Reports

Daily Weather History Graph

Daily Weather History Graph

Search for Another Location

Airport or City:

Astronomy

Sep. 06, 2019 Rise Set
Actual Time 6:28 AM EDT 7:20 PM EDT
Civil Twilight 6:00 AM EDT 7:48 PM EDT
Nautical Twilight 5:28 AM EDT 8:20 PM EDT
Astronomical Twilight 4:54 AM EDT 8:54 PM EDT
Moon 2:34 PM EDT (9/6) No Moon Set
Length of Visible Light 13h 47m
Length of Day
12h 51m
First Quarter, 55% of the Moon is Illuminated
Sep 6
First Quarter
Sep 14
Full
Sep 21
Last Quarter
Sep 28
New
Oct 5
First Quarter

Hourly Weather History & Observations

Time (EDT) Temp. Dew Point Humidity Pressure Visibility Wind Dir Wind Speed Gust Speed Precip Events Conditions
12:56 AM 66.9 °F 59.0 °F 76% 30.02 in 10.0 mi ENE 6.9 mph - N/A   Scattered Clouds
1:56 AM 66.9 °F 57.9 °F 73% 30.00 in 10.0 mi NE 6.9 mph - N/A   Overcast
2:56 AM 66.9 °F 57.9 °F 73% 29.99 in 10.0 mi NE 5.8 mph - N/A   Overcast
3:56 AM 66.9 °F 59.0 °F 76% 29.97 in 10.0 mi NE 8.1 mph - N/A   Partly Cloudy
4:56 AM 66.9 °F 61.0 °F 81% 29.96 in 10.0 mi NE 11.5 mph - N/A   Overcast
5:18 AM 66.2 °F 60.8 °F 83% 29.96 in 10.0 mi NE 10.4 mph - N/A   Overcast
5:56 AM 66.9 °F 62.1 °F 84% 29.95 in 10.0 mi NE 10.4 mph - N/A   Overcast
6:56 AM 66.9 °F 62.1 °F 84% 29.95 in 10.0 mi NE 11.5 mph - N/A   Overcast
7:56 AM 68.0 °F 60.1 °F 76% 29.93 in 10.0 mi ENE 17.3 mph 24.2 mph N/A   Overcast
8:35 AM 68.0 °F 60.8 °F 78% 29.92 in 10.0 mi ENE 13.8 mph 23.0 mph N/A   Overcast
8:56 AM 68.0 °F 60.1 °F 76% 29.92 in 10.0 mi ENE 18.4 mph 24.2 mph N/A   Overcast
9:04 AM 68.0 °F 59.0 °F 73% 29.92 in 10.0 mi ENE 13.8 mph 24.2 mph N/A   Overcast
9:56 AM 64.9 °F 60.1 °F 84% 29.91 in 3.0 mi ENE 12.7 mph 21.9 mph 0.01 in Rain Light Rain
10:56 AM 63.0 °F 59.0 °F 87% 29.88 in 8.0 mi ENE 17.3 mph 28.8 mph 0.01 in Rain Light Rain
11:35 AM 62.6 °F 60.8 °F 94% 29.90 in 2.5 mi ENE 15.0 mph 20.7 mph 0.00 in Rain Light Rain
11:42 AM 62.6 °F 60.8 °F 94% 29.90 in 1.5 mi NE 11.5 mph 21.9 mph 0.01 in Rain Light Rain
11:54 AM 62.6 °F 60.8 °F 94% 29.90 in 1.5 mi ENE 16.1 mph 20.7 mph 0.03 in Rain Light Rain
11:56 AM 62.1 °F 61.0 °F 96% 29.91 in 1.5 mi ENE 13.8 mph 20.7 mph 0.03 in Rain Light Rain
12:02 PM 62.6 °F 60.8 °F 94% 29.90 in 2.0 mi NE 13.8 mph - 0.03 in Rain Rain
12:18 PM 62.6 °F 60.8 °F 94% 29.88 in 3.0 mi NE 16.1 mph 27.6 mph 0.03 in Rain Light Rain
12:27 PM 62.6 °F 60.8 °F 94% 29.88 in 5.0 mi NE 16.1 mph 21.9 mph 0.04 in Rain Light Rain
12:56 PM 62.1 °F 61.0 °F 96% 29.87 in 5.0 mi NE 16.1 mph 25.3 mph 0.05 in Rain Light Rain
1:07 PM 62.6 °F 60.8 °F 94% 29.87 in 4.0 mi NE 11.5 mph - 0.01 in Rain Light Rain
1:41 PM 62.6 °F 60.8 °F 94% 29.85 in 1.8 mi NNE 17.3 mph 21.9 mph 0.02 in Rain Light Rain
1:56 PM 61.0 °F 60.1 °F 97% 29.83 in 1.2 mi NNE 17.3 mph 26.5 mph 0.04 in Rain Light Rain
2:33 PM 60.8 °F 59.0 °F 94% 29.80 in 3.0 mi NNE 13.8 mph 24.2 mph 0.01 in Rain Light Rain
2:56 PM 61.0 °F 57.9 °F 90% 29.80 in 10.0 mi NE 18.4 mph 25.3 mph 0.01 in   Overcast
3:56 PM 61.0 °F 57.0 °F 87% 29.80 in 6.0 mi NNE 13.8 mph 21.9 mph 0.00 in Rain Light Rain
4:56 PM 61.0 °F 59.0 °F 93% 29.78 in 10.0 mi NNE 13.8 mph 23.0 mph 0.01 in Rain Light Rain
5:56 PM 62.1 °F 59.0 °F 90% 29.77 in 10.0 mi NNE 16.1 mph 24.2 mph 0.00 in   Overcast
6:56 PM 61.0 °F 57.9 °F 90% 29.77 in 10.0 mi North 10.4 mph 23.0 mph N/A   Overcast
7:56 PM 61.0 °F 55.9 °F 83% 29.77 in 10.0 mi North 13.8 mph - N/A   Overcast
8:56 PM 60.1 °F 54.0 °F 80% 29.76 in 10.0 mi North 12.7 mph - N/A   Overcast
9:56 PM 61.0 °F 54.0 °F 78% 29.75 in 10.0 mi NNW 16.1 mph 20.7 mph N/A   Overcast
10:56 PM 62.1 °F 55.0 °F 78% 29.76 in 10.0 mi NNW 12.7 mph - N/A   Overcast
11:56 PM 61.0 °F 55.0 °F 81% 29.75 in 10.0 mi NNW 12.7 mph - N/A   Overcast